Theta_e
283 283 283 283 282 281 281 281 281 281 280 280 280 281 282 282 282 282 282 282 283 283 283 283 283 283 283 284 284 285 285 286 286 286 286 286 286 286 286 285 285 285 285 285 285 284 284 284 284 285 284 284 284 284 284 284 283 283 283 283 283 283 283 283 283 284 282 282 282 282 283 283 282 284 283 284 283 286 288 286 285 284 284 284 286
283 283 283 283 281 281 281 281 281 281 280 280 280 280 281 281 281 282 282 282 282 282 282 283 283 283 283 283 284 284 284 284 285 286 286 286 286 287 287 286 285 285 285 285 285 285 285 284 285 284 284 284 284 284 284 284 283 283 283 283 283 283 282 283 282 282 283 280 280 280 281 283 282 283 283 283 283 284 285 284 284 284 283 283 283
282 282 282 281 281 280 280 280 280 280 280 279 279 279 279 279 280 280 281 281 282 282 282 282 282 282 282 282 282 283 283 283 284 284 285 285 285 286 286 286 285 285 285 285 285 285 285 284 284 284 285 284 284 283 283 283 283 283 284 283 283 284 282 283 282 282 281 280 280 280 280 281 282 282 283 284 284 284 284 283 283 283 284 283 283
281 280 280 280 279 279 279 279 279 279 279 279 279 278 279 279 279 279 280 281 281 282 281 281 281 281 281 281 281 282 282 283 283 283 283 283 284 284 284 285 285 285 285 285 285 285 285 284 284 284 284 284 284 284 283 283 283 283 283 283 283 283 283 282 282 283 283 282 280 280 280 280 281 282 283 283 283 282 283 283 282 282 282 282 282
279 279 279 278 278 278 278 278 278 279 279 279 278 278 278 278 278 278 279 279 280 280 281 281 281 281 281 280 281 281 281 282 282 282 283 283 283 283 283 284 284 284 285 285 286 285 285 284 285 284 284 283 284 283 283 283 283 283 283 283 282 283 283 283 283 282 282 282 281 280 280 280 282 281 282 282 281 281 281 281 281 281 281 280 281
277 278 277 278 277 276 276 277 278 278 279 279 278 279 279 279 278 278 278 279 279 279 279 280 280 280 280 280 280 280 280 281 281 282 282 282 282 282 282 282 283 283 284 284 284 284 285 285 285 284 284 283 284 284 284 283 283 283 283 283 283 282 282 282 282 282 282 282 282 279 279 279 280 280 281 282 281 280 279 279 278 279 279 279 279
278 277 277 277 277 277 277 277 277 277 278 278 278 278 279 278 278 278 278 278 278 279 279 279 280 279 280 280 280 280 280 280 280 280 281 281 281 282 282 282 282 282 283 283 283 283 284 284 284 284 284 284 284 284 284 283 284 283 284 283 283 283 282 282 282 282 282 282 281 280 280 279 280 280 280 282 281 281 280 278 277 279 279 280 279
278 277 277 277 277 278 277 277 278 278 278 278 278 278 278 278 278 278 277 277 278 278 278 279 279 279 280 280 280 280 279 279 279 280 280 280 281 281 281 281 282 282 282 282 282 283 283 284 284 284 284 284 284 284 285 284 284 283 284 283 283 283 282 283 282 282 282 281 282 280 279 279 279 278 279 279 279 278 279 279 278 278 278 279 280
277 276 276 277 277 277 278 278 279 278 278 278 278 278 278 278 278 277 277 277 278 278 278 278 279 279 279 279 279 279 279 280 280 279 279 280 280 280 281 281 281 282 282 282 282 282 283 283 283 284 284 285 286 286 286 286 285 284 284 283 283 283 283 283 283 283 282 282 282 281 278 278 279 279 277 278 278 279 280 279 279 279 278 278 279
277 277 276 276 276 276 276 277 277 277 278 278 278 278 278 278 278 278 277 277 277 277 277 277 278 278 278 279 279 279 279 280 282 284 285 282 281 281 281 281 281 281 281 281 281 282 282 282 283 285 285 285 285 286 287 288 288 286 285 284 284 283 283 283 282 282 282 282 282 282 278 278 279 279 279 279 280 280 279 278 278 278 277 277 278
277 276 276 276 276 275 276 277 277 277 278 278 277 277 278 278 278 277 277 277 277 277 277 276 277 277 277 277 278 279 279 280 283 285 285 286 284 282 281 281 280 281 281 281 281 281 281 282 282 283 284 284 285 286 287 288 288 288 289 288 287 285 284 283 282 282 282 281 282 282 281 280 280 280 280 280 280 280 279 279 279 278 277 276 275
277 277 276 276 276 276 277 277 277 278 278 278 278 278 277 277 277 277 277 277 277 276 276 276 277 277 277 277 277 277 278 281 283 284 285 285 286 283 282 281 281 280 280 280 280 280 281 281 282 282 283 283 283 283 285 287 288 288 288 288 289 289 288 285 283 283 282 282 282 282 282 282 281 280 279 279 279 279 279 279 278 278 278 277 277
276 276 277 276 277 277 277 277 277 277 277 277 277 277 277 277 277 277 276 276 276 276 276 276 276 276 276 276 276 277 277 281 282 283 284 284 285 284 282 281 280 280 280 280 280 280 280 280 281 282 282 284 284 283 283 283 285 287 288 288 288 289 289 290 289 286 284 283 283 283 283 283 282 281 280 280 280 279 279 278 278 279 279 278 278
275 275 275 276 276 276 276 276 276 276 276 275 276 275 275 275 275 275 275 275 275 275 275 275 275 275 275 275 275 276 276 279 282 282 283 283 284 284 281 281 280 280 280 280 280 280 280 280 280 280 281 282 282 282 282 282 283 283 283 284 284 285 287 288 288 288 288 285 284 283 284 285 283 283 281 282 280 279 279 278 279 278 279 279 280
274 274 274 274 274 274 274 274 273 273 273 274 273 273 273 273 273 274 274 274 274 274 274 274 274 274 274 275 274 275 275 279 281 281 282 282 283 283 280 280 280 280 280 280 280 280 280 281 280 280 280 281 281 282 282 281 281 282 282 282 283 283 284 284 285 286 286 287 286 285 285 286 285 285 282 282 282 281 281 280 280 280 280 281 281
273 273 272 273 273 273 272 271 271 271 271 271 270 270 270 271 271 271 272 272 272 272 273 273 273 273 273 273 273 273 274 278 279 280 280 281 282 279 278 278 278 278 278 279 279 280 280 280 280 280 280 280 283 285 285 283 281 280 280 281 282 283 283 285 287 287 286 286 286 286 286 286 287 286 284 282 282 282 282 281 280 279 279 278 278
271 271 271 271 271 270 270 269 268 268 268 267 267 268 268 268 268 269 268 269 269 269 269 270 271 271 271 271 271 271 272 275 278 278 279 280 280 277 276 276 276 276 276 277 278 278 279 280 280 280 280 280 282 285 286 286 282 281 280 280 280 281 282 283 286 288 289 289 289 289 289 290 290 290 290 288 284 283 281 279 278 279 277 276 277
270 269 269 269 268 268 267 266 265 265 265 265 265 265 265 265 265 267 266 266 266 267 268 268 269 269 270 270 270 270 271 274 277 278 279 279 279 275 275 274 274 274 275 276 277 278 279 281 281 279 279 279 283 285 286 285 282 281 281 280 279 279 280 282 283 284 288 288 289 289 289 289 289 290 290 290 288 286 281 279 280 280 277 278 277
267 266 266 266 265 264 264 263 263 263 262 263 262 262 262 263 264 264 264 265 264 265 266 265 266 266 267 268 270 270 269 271 275 276 277 277 276 273 273 272 272 272 273 273 275 275 276 279 280 281 281 281 284 284 285 284 282 281 281 280 279 279 280 282 281 281 281 282 283 285 285 287 287 287 287 289 289 287 283 282 282 280 278 278 278
265 265 264 264 263 262 262 262 261 261 261 261 261 261 262 262 262 262 262 262 262 262 263 263 263 264 265 266 266 267 267 268 270 274 275 276 277 273 272 272 271 271 272 272 272 273 274 275 277 280 281 283 284 285 285 285 283 282 282 280 279 279 282 282 281 281 280 281 281 282 283 284 285 285 285 285 286 286 285 283 283 282 280 279 279
263 263 262 262 261 261 261 260 260 260 260 260 260 261 261 261 261 260 260 260 260 261 261 261 262 262 263 264 264 265 266 266 267 272 273 274 275 274 271 271 271 271 271 271 271 271 272 273 274 278 280 281 282 284 285 286 286 283 282 281 281 282 284 281 281 284 281 280 281 281 281 282 283 284 284 284 285 285 285 285 283 283 282 280 280
262 261 260 260 260 259 259 259 259 259 259 259 259 259 259 260 259 259 260 259 259 259 260 261 261 261 262 263 263 264 266 267 266 269 272 273 274 274 271 270 272 271 271 271 272 272 273 273 274 277 279 281 282 283 284 285 285 284 284 286 286 286 284 283 281 279 279 280 280 280 279 279 281 282 283 283 284 284 285 285 284 283 283 283 282
260 259 259 258 258 258 258 258 258 259 258 259 258 258 258 258 258 259 258 258 258 258 259 259 260 260 260 261 262 263 264 265 268 267 270 272 272 273 273 272 274 271 270 270 270 271 273 273 274 277 278 280 281 282 283 284 284 283 286 287 287 287 286 284 281 278 278 279 279 279 279 279 279 280 281 282 283 284 284 284 285 284 283 283 283
258 258 257 257 257 257 257 257 258 258 257 258 257 257 257 258 258 258 258 258 258 258 258 259 259 259 259 260 261 262 263 264 266 269 268 270 271 272 273 273 273 270 270 269 270 271 271 272 274 278 279 280 281 282 283 283 282 284 285 286 287 287 285 283 282 280 279 279 279 279 279 280 280 280 280 281 282 283 283 284 284 284 283 283 282
257 256 256 256 256 257 257 257 257 257 257 257 257 257 257 257 257 257 258 257 257 257 257 258 258 258 258 258 259 260 261 262 262 265 269 270 271 271 272 272 272 273 268 268 269 268 271 274 275 276 277 278 279 281 282 283 284 284 284 285 284 284 284 283 282 281 280 279 279 279 279 280 280 280 281 281 281 282 282 282 283 283 281 279 277
256 256 256 256 256 257 256 256 257 257 257 257 257 257 257 257 256 257 257 257 257 256 256 257 257 257 257 258 258 259 260 261 261 262 264 266 267 269 270 271 271 272 271 269 272 274 274 274 275 275 275 275 275 276 277 278 282 283 284 284 282 282 282 282 282 281 280 280 280 279 279 280 280 279 279 280 280 279 279 279 278 274 274 274 274
256 256 256 256 256 256 256 256 257 257 257 257 257 257 257 256 256 256 256 256 256 256 256 257 257 257 257 258 259 259 260 261 261 262 262 262 263 264 264 265 268 270 267 266 268 267 268 270 270 273 274 275 276 277 277 279 280 281 281 281 281 281 282 281 281 281 281 281 280 280 280 280 279 278 278 279 279 279 279 277 276 275 274 274 275
256 256 256 256 256 256 256 257 257 256 256 256 256 256 256 256 256 256 256 256 256 256 257 257 258 258 259 259 260 261 261 262 262 262 263 263 264 264 264 265 265 265 265 265 265 266 267 270 271 270 271 271 272 273 274 276 278 279 280 280 280 280 281 283 283 282 281 281 281 281 279 279 278 278 278 278 278 278 278 277 276 274 273 273 272
256 255 256 256 256 257 256 256 256 256 256 256 256 256 256 256 256 257 259 259 259 259 259 261 262 263 263 263 263 263 263 263 264 268 267 269 268 267 267 267 267 267 268 271 268 268 269 269 269 269 270 270 271 272 273 274 276 278 279 280 279 279 279 279 279 280 281 281 280 280 280 280 279 278 277 277 277 277 277 276 276 274 273 273 273
255 255 256 256 256 256 256 256 256 256 255 255 255 256 259 263 263 260 260 264 267 269 268 264 265 265 265 265 265 264 264 265 271 273 273 273 273 273 273 273 274 272 273 275 273 269 269 268 269 269 269 270 270 271 272 273 274 275 277 280 279 279 278 278 279 279 280 280 280 280 279 279 278 277 276 276 276 276 275 276 274 274 272 271 272
256 256 256 256 256 256 256 256 256 256 255 255 255 255 255 257 264 266 266 266 267 269 269 270 270 270 267 265 267 271 271 272 272 272 272 272 273 273 273 273 274 274 275 271 269 268 267 267 268 268 269 269 269 270 271 272 273 274 275 276 278 278 278 278 278 279 279 280 280 280 280 279 278 277 275 275 275 274 274 274 274 273 272 272 272
255 255 256 256 256 256 256 256 256 255 255 256 255 255 255 255 256 262 266 266 267 268 269 269 269 270 270 269 267 266 269 271 271 271 272 272 272 273 273 273 274 274 275 275 269 268 268 268 268 268 269 269 270 271 271 272 273 273 274 274 275 276 277 277 278 278 278 279 279 279 279 278 278 276 275 275 274 273 272 272 272 271 271 272 271
255 255 256 256 256 256 256 256 255 255 255 255 255 255 255 255 255 255 258 265 267 267 268 268 269 269 270 270 271 270 270 270 271 271 271 272 272 273 273 274 274 274 274 270 268 267 267 267 267 268 268 268 269 269 270 271 272 273 274 274 274 275 277 278 279 278 278 279 279 279 279 278 277 276 274 274 272 271 271 271 271 271 270 270 270
255 255 255 256 255 255 255 255 255 255 256 256 255 256 256 256 255 256 256 256 258 262 265 266 267 268 269 269 270 270 271 270 271 271 272 272 272 273 273 270 273 274 272 268 267 267 267 267 267 268 268 269 269 270 270 271 272 273 274 275 276 276 277 278 278 278 278 279 279 279 278 277 276 275 273 273 272 271 270 270 270 269 269 270 270
255 256 256 256 255 255 256 256 256 255 256 255 255 256 256 256 257 257 256 256 256 256 257 259 264 267 265 267 269 270 271 271 271 271 271 272 272 273 273 268 266 266 267 266 266 266 267 267 267 268 268 268 268 269 270 270 271 272 274 275 276 276 276 276 277 278 278 278 278 278 277 276 275 274 273 271 270 270 270 269 269 269 269 269 269
255 255 255 256 255 255 256 255 256 256 255 256 256 257 257 257 257 257 257 257 257 257 258 259 259 264 268 268 269 269 270 271 271 271 272 272 272 272 266 265 265 265 265 266 266 267 267 268 268 268 268 268 269 269 270 271 272 273 274 275 275 275 275 276 276 277 277 278 277 277 276 275 275 274 273 272 271 270 270 269 269 269 269 269 269
255 255 255 255 255 255 255 256 256 256 258 258 257 257 257 257 257 257 257 257 257 258 258 259 259 260 263 262 263 268 269 270 270 271 271 272 272 269 265 265 264 265 265 265 266 267 268 269 270 270 270 269 269 269 270 271 272 273 274 275 276 276 276 275 275 276 277 277 277 276 275 274 274 273 272 271 270 270 270 269 269 268 269 269 268
254 254 255 255 256 256 256 256 256 258 257 257 257 257 257 257 257 257 257 257 258 258 258 258 260 259 259 260 264 263 263 268 270 269 269 269 266 265 265 265 266 266 266 267 268 268 269 269 270 271 271 270 270 270 271 272 274 275 275 276 276 275 276 276 276 276 276 276 276 275 274 274 274 273 272 271 270 269 268 268 268 268 268 268 268
254 256 256 257 258 256 256 256 256 256 256 256 256 257 257 257 257 257 257 257 258 258 258 259 259 259 259 261 261 264 265 263 262 262 263 263 264 265 264 264 264 265 265 266 266 267 267 268 269 271 271 271 271 271 271 272 273 274 275 275 275 275 276 275 274 275 275 276 275 274 273 273 272 272 271 270 269 268 268 267 268 268 267 267 267
254 254 255 256 256 256 256 256 256 255 256 256 256 256 257 257 257 257 257 257 257 258 258 258 259 259 260 261 262 263 262 261 260 260 260 260 261 262 261 261 262 262 263 263 264 264 265 266 267 269 271 272 271 270 271 271 272 274 275 276 275 273 272 273 274 274 274 274 273 272 272 271 271 270 270 269 269 268 267 267 267 267 267 267 267
253 254 255 256 256 255 255 255 255 255 255 256 256 256 256 257 257 257 257 257 257 257 258 258 258 259 260 262 266 265 261 259 258 258 259 259 259 259 259 260 260 260 261 262 262 263 263 264 267 268 270 272 272 271 272 272 273 273 273 272 272 271 271 271 273 273 273 271 271 270 270 270 269 269 268 268 269 268 267 267 267 267 267 267 266
252 253 253 254 255 254 254 254 255 256 255 256 256 256 256 257 257 257 257 257 257 257 257 257 258 258 261 263 265 265 260 257 257 257 258 258 258 258 259 259 259 259 260 261 261 262 263 264 266 267 267 268 269 270 272 272 272 271 271 270 270 269 269 270 270 270 270 269 269 269 269 268 268 268 268 269 267 267 266 266 266 266 266 266 265
253 253 253 254 254 254 254 254 254 254 255 255 255 257 257 256 256 256 256 256 257 257 257 257 257 258 258 262 261 262 258 257 257 257 257 257 257 257 257 257 258 259 260 260 261 261 262 263 264 266 266 267 267 268 268 268 269 269 269 269 269 268 268 268 268 268 268 267 267 267 267 268 268 267 267 266 266 266 266 266 265 265 265 265 265
253 253 253 253 253 253 254 254 254 254 254 256 256 256 256 256 255 255 255 255 256 256 256 256 257 257 257 258 258 257 256 256 256 256 256 257 256 257 257 257 257 258 259 259 260 260 261 262 262 264 265 265 266 267 267 267 268 268 268 268 267 267 267 267 267 267 267 266 266 266 267 266 267 266 266 266 266 265 265 265 265 264 265 265 265
250 251 251 251 252 252 253 253 254 254 255 254 253 253 255 254 254 255 255 255 256 256 256 256 257 256 257 256 257 256 256 256 256 256 256 256 256 256 257 257 257 258 258 258 259 259 260 260 260 261 261 262 263 264 265 266 266 266 267 267 266 266 266 266 266 266 266 266 266 266 266 266 266 265 265 265 265 265 264 264 264 264 264 264 264
251 251 251 251 252 252 253 252 254 253 253 253 252 252 253 253 253 254 255 255 256 256 256 256 256 256 256 256 256 257 256 256 256 256 256 256 256 257 257 257 257 257 258 258 258 259 259 259 259 259 260 260 261 262 263 264 264 265 265 265 265 265 265 266 266 266 266 266 266 266 265 265 265 265 265 265 265 265 264 264 264 264 264 264 264
250 250 251 251 251 252 252 253 252 252 252 252 252 252 253 253 253 254 254 255 255 256 255 255 255 255 256 256 256 256 256 257 256 256 256 256 256 257 257 257 257 257 258 258 258 259 259 259 259 259 260 260 261 261 262 263 263 264 264 264 265 265 264 265 265 265 266 266 266 265 265 265 264 264 264 265 264 264 264 264 264 263 263 264 264
250 250 250 251 251 251 251 251 251 253 251 251 252 252 253 253 253 253 253 254 254 254 254 254 254 255 255 255 256 256 256 256 257 257 256 256 256 256 257 257 257 257 258 258 258 259 259 260 260 260 260 260 260 261 262 263 263 264 264 264 264 265 265 264 265 265 265 265 265 265 265 264 264 264 264 264 264 264 263 263 263 263 263 263 264
250 250 250 250 251 251 250 250 251 250 250 251 251 251 252 252 252 252 252 253 253 254 254 253 253 254 254 255 255 255 255 256 256 256 256 256 256 256 256 256 257 257 257 257 258 259 259 260 261 261 261 261 261 261 262 262 263 264 264 265 265 266 265 265 265 264 265 265 265 265 265 264 264 264 264 263 263 263 263 263 263 263 263 263 263
249 250 250 250 250 250 250 249 249 249 249 250 250 250 251 251 251 251 252 252 252 252 252 253 253 253 253 254 254 254 254 254 255 255 255 256 256 256 256 256 256 256 256 257 257 258 259 260 261 262 262 262 262 262 262 262 262 263 263 264 265 265 265 265 265 265 264 264 264 264 264 264 263 263 263 263 263 263 262 262 263 263 263 262 262
249 249 249 249 249 249 248 248 248 248 248 249 249 249 250 249 250 250 251 251 251 251 252 251 252 252 253 253 254 254 254 254 254 254 254 255 255 255 255 255 255 255 256 256 256 257 258 258 259 261 262 262 263 263 263 263 263 264 264 264 264 264 263 263 264 264 264 264 264 264 263 263 262 262 262 262 262 262 262 262 262 262 262 262 262
Wind_Speed
4 5 4 4 4 4 3 3 4 3 4 4 4 4 5 4 5 4 4 6 6 8 9 9 9 8 8 8 8 8 8 8 7 6 6 6 6 5 5 5 5 6 5 7 5 5 6 7 8 7 5 7 7 7 7 7 7 7 7 7 8 7 8 9 12 13 4 5 4 7 8 8 8 11 11 10 8 10 13 11 10 11 11 11 11
4 5 4 4 4 4 4 4 4 4 5 5 6 6 6 7 6 7 6 5 4 7 7 6 7 9 8 9 9 8 7 8 8 7 7 8 7 5 6 6 6 6 5 6 6 6 6 7 8 7 6 8 7 8 7 8 8 7 8 8 8 8 7 7 9 8 11 2 5 1 5 8 10 9 14 13 13 10 12 11 10 12 12 10 10
4 4 4 4 4 3 2 3 3 3 3 3 4 4 4 4 5 7 8 9 8 6 7 7 7 7 7 8 9 9 9 8 7 7 7 8 8 8 7 6 7 7 7 7 7 6 6 7 8 7 6 7 8 8 7 8 7 9 11 7 9 9 7 8 8 10 8 7 5 6 6 7 12 12 14 12 12 11 13 12 12 11 10 10 10
4 3 3 3 2 2 2 2 1 1 2 1 2 2 3 3 4 5 5 5 7 8 8 7 7 8 7 7 7 7 9 9 9 8 7 6 7 9 8 7 7 7 7 8 8 7 8 8 8 7 7 8 9 7 7 7 8 8 9 9 9 10 8 7 9 10 8 8 6 9 7 8 9 5 8 7 8 9 11 11 7 8 8 8 10
3 3 2 2 2 1 2 2 3 4 4 3 3 3 4 3 3 4 4 5 5 6 7 6 6 7 8 8 8 8 7 7 8 9 9 7 7 7 8 8 8 8 7 7 7 8 8 8 8 6 7 9 9 7 7 8 8 8 10 9 8 9 7 8 10 8 10 12 7 5 6 7 5 5 7 11 8 7 6 9 10 10 9 7 7
3 2 2 2 3 4 4 4 5 6 7 6 6 6 7 6 5 5 4 6 6 5 6 6 5 6 6 7 7 7 7 7 7 8 8 8 8 7 6 7 7 8 8 8 8 7 8 9 8 7 7 9 9 8 8 9 8 9 10 9 8 7 8 9 8 10 10 12 10 6 5 8 5 6 8 11 10 9 7 6 4 6 7 8 10
2 2 3 4 4 5 5 5 5 5 5 5 5 6 7 7 6 7 6 5 7 7 7 7 6 5 7 6 6 7 8 7 8 8 8 8 8 8 9 8 8 7 7 8 8 8 9 9 9 8 9 9 10 9 9 9 8 10 10 10 9 9 10 10 9 10 11 12 9 8 8 8 8 10 6 10 10 10 12 10 9 7 8 12 11
4 4 5 5 5 6 6 5 6 6 6 5 5 6 6 6 6 6 5 7 7 7 8 8 8 6 8 7 7 7 7 7 8 8 8 8 7 8 8 9 9 9 8 8 7 8 9 9 9 9 9 9 9 9 8 9 8 9 9 8 9 10 10 9 9 10 11 11 11 8 7 8 7 3 4 6 8 7 8 9 13 12 13 11 11
4 4 4 5 5 5 6 6 6 8 9 9 10 9 8 7 7 6 6 7 7 7 7 8 9 9 8 8 9 8 8 9 7 7 8 9 8 9 9 9 10 10 10 10 9 9 8 8 9 9 10 13 15 13 12 11 9 9 9 8 9 10 9 9 9 9 10 10 11 8 7 8 9 10 9 11 15 16 10 9 11 8 6 7 10
2 3 3 4 4 4 4 5 6 7 9 10 11 11 11 11 11 11 10 9 8 7 8 8 8 9 10 11 10 9 9 8 9 14 13 10 9 9 9 9 9 9 10 11 10 10 10 9 9 14 15 16 16 17 18 18 17 13 10 8 9 10 10 10 10 10 10 11 12 10 8 10 11 12 13 13 10 6 9 12 12 8 7 9 8
2 1 3 4 4 4 4 5 6 8 8 8 8 9 11 11 10 11 11 10 10 10 9 10 10 10 10 11 12 11 10 10 15 18 20 22 14 11 10 10 9 10 10 11 12 11 10 10 9 11 12 13 13 17 18 19 19 19 20 18 14 11 10 12 11 10 10 11 11 10 11 13 12 10 12 9 9 13 13 12 12 10 12 12 14
6 6 5 5 5 6 6 7 8 9 8 9 9 9 9 9 10 11 11 11 10 8 10 11 11 11 11 11 12 12 12 13 21 21 22 23 20 13 10 10 10 11 11 11 11 11 11 11 9 8 9 10 11 10 13 17 19 20 20 20 20 21 19 14 12 11 11 12 12 12 12 14 12 9 9 9 10 10 9 10 13 15 14 13 12
6 6 6 6 7 7 7 7 8 8 8 8 9 9 10 11 12 11 11 10 8 10 12 12 12 12 11 13 13 13 13 16 23 24 23 24 24 20 11 11 12 12 13 13 12 12 10 10 11 10 9 15 13 11 11 11 15 19 20 21 22 22 22 23 22 15 10 12 13 14 14 13 12 9 12 12 9 12 11 11 12 12 13 14 15
6 6 6 6 6 7 8 8 8 9 8 9 10 10 11 11 10 9 9 9 10 12 13 14 14 14 13 14 13 14 15 17 25 26 25 26 26 21 12 13 13 13 14 13 12 13 13 12 11 11 10 10 10 11 11 11 11 11 11 12 12 16 20 23 23 25 20 14 13 16 15 12 12 9 8 11 14 14 13 13 12 12 13 17 14
6 6 7 7 7 7 9 9 9 9 10 10 10 11 11 11 12 11 10 12 13 13 14 15 15 15 15 14 14 15 15 23 26 27 27 28 27 23 13 13 12 12 13 13 14 14 14 13 13 13 13 12 10 12 12 12 11 11 11 12 12 12 13 13 15 14 14 14 15 17 16 12 12 11 6 11 15 14 14 16 16 14 15 12 8
8 9 9 9 8 8 8 10 10 10 11 11 11 12 12 12 13 12 12 12 12 13 14 13 15 16 16 15 15 17 17 26 28 28 29 28 29 17 13 13 14 14 14 14 13 13 13 14 14 14 15 14 13 19 18 13 12 12 14 13 13 12 12 13 15 14 14 14 14 15 15 13 12 11 7 9 10 9 9 8 7 9 10 11 14
8 8 7 8 8 9 9 9 10 11 11 12 12 12 12 12 12 10 12 12 13 13 14 14 14 15 17 17 17 17 18 24 30 30 29 30 23 14 13 12 13 15 16 16 16 15 15 14 14 14 14 15 16 21 22 20 13 14 14 14 13 12 13 12 16 20 19 19 20 21 21 19 18 19 18 16 11 9 8 9 13 12 12 13 13
6 6 8 8 9 9 9 9 11 12 11 11 12 12 12 11 11 10 11 13 13 13 12 14 14 14 16 17 16 17 18 24 31 31 32 31 25 17 13 13 14 16 16 17 16 15 16 23 20 16 16 17 19 23 23 19 14 14 15 15 15 14 13 12 10 10 18 22 22 23 23 20 19 19 20 20 18 13 12 15 13 9 12 14 16
6 7 8 8 9 8 9 10 10 11 12 12 11 13 13 12 11 11 10 11 13 12 13 12 14 15 15 16 22 23 18 22 30 31 32 31 24 16 14 13 15 15 15 16 16 15 17 16 22 21 19 19 26 26 26 20 15 14 15 14 15 15 15 14 12 11 9 9 12 14 16 19 17 14 14 20 22 18 16 15 10 11 14 15 12
7 7 8 8 8 8 8 10 10 10 12 13 12 11 10 10 10 11 12 11 12 12 12 12 16 15 13 13 14 15 17 17 21 31 30 31 30 20 15 14 15 15 15 14 15 15 16 16 20 28 31 32 31 32 30 28 18 15 14 14 14 17 14 14 12 11 10 11 11 12 12 12 11 11 11 13 14 14 16 15 14 13 15 15 13
7 7 8 8 8 8 8 7 11 11 10 11 12 11 9 11 11 11 12 11 11 11 13 13 13 15 13 12 12 12 11 16 19 29 30 30 30 26 15 15 15 14 14 15 15 16 16 16 15 23 31 31 31 32 31 30 27 18 16 16 16 16 15 12 12 15 11 10 10 10 10 9 9 9 11 11 12 13 13 14 14 14 15 14 14
7 7 7 8 8 8 8 9 8 9 10 10 12 12 10 10 11 11 10 11 13 14 12 12 13 13 11 11 11 14 15 23 19 24 28 29 29 30 19 16 17 15 17 16 16 16 17 17 16 22 32 32 32 31 33 31 34 20 17 20 22 23 18 14 10 7 8 9 9 9 9 9 9 10 11 11 12 13 14 14 14 15 14 14 14
6 7 7 8 8 9 9 9 10 8 9 10 11 13 11 11 12 11 12 12 13 14 13 13 12 13 12 9 9 11 12 14 23 20 25 27 28 27 29 23 28 20 16 18 17 17 15 17 19 31 35 36 35 35 33 34 30 20 25 25 24 25 22 14 9 8 9 10 10 10 10 10 10 11 11 11 12 13 13 14 14 13 13 13 13
6 7 8 8 9 9 8 8 9 9 10 10 10 11 12 11 11 10 11 11 12 12 11 10 11 11 12 13 10 11 10 12 17 25 23 28 28 29 28 29 29 19 17 16 16 16 15 15 17 28 31 32 35 35 35 33 24 28 33 32 27 24 16 13 11 10 10 11 11 11 12 11 11 11 11 12 11 11 11 11 12 13 12 12 13
6 7 8 8 8 8 8 8 9 8 9 8 10 10 11 10 11 10 11 11 11 11 11 11 12 12 12 13 11 11 12 11 13 18 28 29 30 29 29 30 29 29 21 17 17 18 24 36 38 37 35 36 39 37 31 32 37 36 36 32 26 15 14 12 12 11 12 12 12 12 12 12 12 13 11 8 7 7 8 9 10 10 6 5 3
8 8 9 8 9 9 10 9 8 8 9 7 9 10 11 11 10 11 9 10 10 11 12 9 10 11 13 12 13 13 12 12 13 13 15 19 21 27 31 31 31 31 29 24 30 34 34 33 36 37 34 30 23 19 18 19 27 35 33 29 17 15 14 13 12 12 13 12 13 13 13 11 10 9 7 6 7 9 9 9 7 4 6 6 5
9 9 9 9 9 8 9 9 9 8 9 9 9 9 9 9 10 11 11 11 11 11 11 12 12 12 12 12 12 12 12 12 12 12 11 12 12 15 17 17 24 27 20 17 20 19 22 23 20 25 25 33 34 31 28 26 24 21 18 17 16 15 13 12 12 13 13 12 12 12 11 10 6 5 7 9 10 9 8 8 9 8 7 7 9
8 9 10 9 8 8 8 9 10 10 10 9 10 10 9 9 9 11 11 11 12 13 12 12 13 13 14 13 13 12 11 9 10 11 12 13 13 13 13 13 13 12 14 14 15 17 17 20 24 18 15 15 14 13 14 14 15 15 15 14 14 14 15 16 15 12 12 11 11 10 8 7 8 10 9 9 10 10 9 9 10 9 8 8 7
8 9 9 8 8 8 8 8 9 10 10 9 9 9 10 10 10 12 12 10 10 12 12 12 12 12 12 12 13 11 11 10 10 15 18 22 20 15 11 9 9 10 15 22 17 14 12 12 11 13 11 15 13 12 11 11 12 14 14 12 11 11 11 11 12 13 12 11 12 11 11 10 10 9 9 9 10 10 9 9 9 10 8 9 12
8 8 8 8 8 8 8 9 9 9 9 10 10 11 14 21 16 13 13 21 29 29 25 18 16 13 12 10 10 14 13 14 27 33 30 29 30 31 29 30 29 23 26 34 26 17 12 12 11 11 13 12 13 12 12 12 12 12 13 14 13 11 11 11 11 12 11 12 11 11 11 10 10 10 10 11 9 8 9 11 10 9 10 10 11
7 8 8 8 9 9 9 10 9 9 9 9 9 10 11 14 22 25 24 26 27 29 29 30 31 30 22 17 17 29 32 33 32 31 31 30 30 30 30 29 30 30 30 23 17 12 11 11 11 11 11 13 13 14 13 12 13 13 11 10 9 11 12 10 10 10 11 11 11 11 11 11 11 10 11 11 11 9 8 8 9 9 11 11 11
8 9 8 9 10 9 9 10 10 10 9 8 9 9 10 11 14 21 24 24 27 29 29 30 30 29 31 28 23 16 23 30 32 32 32 31 30 30 29 29 29 30 29 29 18 11 10 11 11 9 11 11 12 12 12 12 11 12 12 11 11 9 10 11 10 10 11 11 12 11 11 10 11 11 11 11 10 9 10 9 9 10 9 9 9
8 9 9 9 9 10 10 9 9 9 9 10 9 9 9 10 12 15 18 24 28 27 27 28 27 28 29 30 31 28 28 29 32 32 30 29 29 27 28 29 29 30 30 17 11 11 10 10 11 11 11 12 10 10 10 12 12 12 12 13 12 11 11 12 12 11 11 12 11 11 10 10 10 9 9 9 10 10 10 11 10 10 10 10 9
8 8 8 9 10 10 10 9 10 10 9 9 9 9 9 10 11 12 14 15 19 22 23 23 23 26 27 29 29 29 29 30 31 31 30 29 29 27 26 21 28 29 23 12 10 10 11 10 11 11 12 11 11 11 11 11 11 12 12 13 13 11 11 11 12 12 11 12 12 10 10 10 9 9 9 9 10 10 10 11 11 11 11 11 11
8 8 12 10 7 9 9 10 10 10 10 9 9 9 10 10 11 11 11 13 13 15 15 18 23 27 24 22 25 29 28 29 29 29 30 28 28 28 26 14 13 13 13 10 11 11 11 12 12 13 12 11 10 9 10 10 11 11 13 12 13 11 9 9 9 10 11 11 11 10 9 10 10 10 10 10 10 10 11 11 11 12 12 11 10
8 8 8 8 8 8 9 9 10 10 10 10 9 9 10 10 11 11 11 12 12 13 14 13 14 20 30 27 28 27 28 29 28 28 27 28 26 25 12 9 10 10 9 10 9 11 12 12 12 12 11 10 10 10 10 10 10 10 11 11 10 7 7 8 9 9 10 11 11 9 9 9 10 11 10 11 15 15 13 13 12 11 11 11 10
7 8 8 8 8 9 9 10 9 10 11 10 10 9 10 10 10 10 11 11 12 12 13 13 13 14 17 12 15 26 30 29 29 28 26 24 24 14 9 10 10 11 12 12 12 12 12 12 12 12 11 10 9 9 9 10 10 10 12 13 13 12 10 8 9 8 10 11 11 11 11 10 10 11 12 12 11 10 10 10 10 10 10 11 11
7 7 7 8 9 10 10 10 10 13 10 8 8 8 10 10 10 10 11 11 12 12 13 13 12 12 13 14 16 13 18 24 26 21 17 15 11 7 8 9 10 10 11 11 12 12 13 14 14 13 11 9 9 9 9 10 10 10 9 11 12 12 14 12 13 11 10 9 8 7 9 10 11 11 11 12 12 11 10 10 10 10 9 10 10
6 10 14 16 13 10 10 10 10 10 9 9 8 9 10 10 10 10 11 11 12 12 12 12 11 11 11 12 13 15 17 13 12 13 14 13 12 11 11 12 12 12 12 11 12 12 12 13 15 15 12 9 8 9 9 10 8 8 8 7 7 6 9 8 8 9 9 10 9 9 9 9 9 9 10 10 10 10 11 11 11 11 11 11 11
7 7 8 14 9 10 10 10 10 9 9 9 9 9 9 10 10 11 11 11 12 12 11 11 12 11 12 12 13 14 14 14 12 12 12 12 12 12 11 11 11 11 12 12 12 12 14 13 13 14 14 9 8 8 8 8 8 9 8 8 8 9 9 8 8 8 8 7 7 7 8 8 8 8 8 9 10 10 11 12 11 11 11 11 10
7 8 8 9 11 10 9 9 8 8 8 8 9 9 9 10 10 10 10 11 11 11 11 10 11 10 12 18 25 23 12 11 12 11 11 12 12 12 11 10 11 12 12 12 12 11 12 13 12 13 14 9 6 7 8 8 8 8 8 7 7 6 4 4 5 6 5 6 6 7 7 7 8 9 9 7 7 8 8 8 8 8 8 8 8
7 7 7 7 9 8 8 9 9 9 8 8 8 8 9 9 9 9 10 10 10 10 11 10 10 11 16 28 24 26 13 9 10 11 10 10 10 11 11 10 10 11 11 12 11 12 12 12 12 11 11 10 9 8 5 4 4 3 3 3 3 2 2 2 2 4 5 5 5 6 6 7 7 6 7 8 8 8 8 8 8 8 8 9 9
7 6 6 7 8 8 9 9 8 7 7 8 7 8 9 9 8 9 9 10 9 10 10 11 11 11 12 20 21 21 10 9 9 10 9 10 9 9 9 10 10 10 11 11 11 11 11 11 10 9 9 9 9 8 8 6 5 4 4 3 3 2 3 3 3 4 5 6 6 6 7 7 7 7 7 7 7 7 8 8 8 8 8 9 9
6 6 7 7 8 8 8 8 8 7 7 9 10 9 9 8 7 8 8 9 9 9 9 10 10 11 11 13 13 11 9 9 9 9 10 9 9 9 9 9 10 10 10 10 10 10 11 11 10 10 10 9 10 11 9 8 8 6 5 4 5 5 4 4 3 3 4 6 6 7 7 7 7 7 7 7 8 9 8 8 8 8 8 8 9
5 5 6 7 7 7 8 7 7 7 9 8 6 6 8 6 7 7 8 8 9 9 9 9 10 10 11 11 11 11 10 10 10 10 9 9 9 9 9 10 10 10 10 10 10 11 11 10 11 11 11 10 9 9 9 9 9 8 6 5 5 5 5 5 4 4 5 6 6 6 6 7 7 7 7 7 8 8 8 8 8 9 9 8 9
5 5 6 6 7 8 8 7 8 6 6 6 7 7 7 7 6 7 8 8 9 9 9 9 9 9 10 10 10 11 10 10 10 9 10 9 9 9 9 9 9 10 9 9 10 10 9 9 8 8 9 9 9 8 8 8 8 8 7 7 6 5 5 5 5 6 5 5 6 6 6 7 6 6 7 7 7 7 7 7 7 7 8 8 8
4 4 5 6 7 8 8 7 6 6 6 6 6 6 7 7 7 7 8 9 9 9 8 9 9 9 9 9 10 10 10 10 10 10 10 10 10 10 9 9 9 9 9 9 9 9 10 10 10 10 10 10 10 10 9 8 8 7 7 7 6 7 6 5 6 5 6 6 6 6 7 7 7 7 8 8 7 7 7 7 8 9 8 8 8
4 5 5 6 6 6 6 6 6 7 6 7 6 7 7 7 7 7 7 8 8 8 8 8 8 8 9 9 9 9 9 9 9 9 9 9 9 9 10 10 10 10 9 10 10 10 10 10 10 10 10 10 10 9 9 8 8 8 8 7 7 7 8 8 7 7 6 6 6 7 7 7 7 7 7 8 8 8 8 8 7 7 8 7 7
4 4 5 6 6 6 6 6 7 6 6 6 6 6 6 6 6 6 6 7 7 7 7 8 8 8 8 8 8 8 8 9 9 9 9 9 9 10 10 10 10 10 10 10 10 11 11 10 10 10 10 9 9 9 9 9 9 9 8 7 11 17 15 14 9 8 9 8 8 8 8 8 8 8 8 8 8 8 8 8 8 8 7 7 7
3 4 5 6 6 6 6 6 5 5 6 6 5 5 6 6 6 6 7 7 7 7 7 7 7 8 8 9 10 9 9 9 9 9 9 9 9 9 9 10 10 10 10 10 10 10 11 11 11 9 9 9 9 9 8 8 9 9 9 11 18 18 17 17 16 14 9 7 8 7 8 8 9 8 8 8 8 9 9 8 8 7 7 7 7
5 4 5 5 5 5 5 5 5 5 5 5 5 5 6 6 6 6 6 6 7 7 7 7 7 7 8 7 8 8 9 9 8 8 8 9 9 10 10 10 10 10 10 10 10 10 10 10 10 11 10 9 8 8 7 7 7 9 14 18 19 18 18 14 11 14 16 10 8 8 8 8 9 9 8 8 8 8 9 8 8 7 7 7 7
Wind_Direction
338 329 324 329 340 350 342 348 359 349 8 9 17 4 2 2 0 353 346 3 1 356 355 352 350 348 346 347 346 342 340 335 331 330 322 310 301 283 282 277 270 270 267 275 273 266 263 261 261 258 252 253 253 252 251 243 237 237 234 229 233 224 217 232 242 254 249 242 194 206 196 172 195 198 199 201 194 204 204 205 193 197 202 208 210
319 320 323 322 332 326 345 346 355 2 12 11 13 6 4 359 351 355 7 354 6 353 352 348 348 348 348 345 344 340 337 333 331 332 327 323 313 307 297 287 279 273 269 271 271 266 260 264 266 264 254 248 252 252 247 251 245 242 237 228 235 232 213 216 239 243 247 218 232 198 174 188 200 193 196 193 204 196 202 203 204 202 205 204 206
290 297 305 310 316 296 311 328 343 353 10 352 6 356 355 354 1 6 355 350 350 359 347 345 343 346 347 343 342 341 337 331 326 327 322 320 315 310 304 296 289 285 279 270 267 265 267 261 262 261 261 259 253 248 247 248 247 244 248 230 237 238 220 217 231 244 237 239 208 196 199 190 201 195 201 205 203 193 199 201 203 205 208 202 206
250 257 265 276 270 282 286 279 336 312 342 296 353 321 344 349 356 5 353 347 347 337 345 341 342 342 340 338 338 335 333 331 329 326 316 310 310 307 307 300 289 282 279 278 275 269 261 263 258 252 253 256 258 251 246 244 245 247 251 246 240 244 229 219 222 241 242 237 217 202 199 189 221 209 204 203 192 193 203 208 207 210 210 208 207
227 243 223 253 272 273 295 303 348 337 333 316 327 331 342 339 354 351 345 340 327 329 325 333 331 336 334 329 327 326 323 320 321 320 318 315 303 297 296 297 293 287 278 273 268 266 265 259 260 249 246 252 257 252 249 245 245 243 247 247 243 244 239 228 234 227 239 242 237 212 198 212 216 196 187 186 191 198 203 204 204 207 209 213 212
233 255 273 295 311 333 327 349 351 344 337 332 335 338 339 338 334 333 332 321 314 308 306 306 308 306 311 311 310 306 307 309 308 307 309 310 310 301 290 283 284 284 283 279 275 266 262 263 261 251 245 245 252 249 245 246 246 244 247 247 243 242 240 240 236 239 237 242 234 214 206 198 208 204 191 190 185 192 203 214 200 205 198 210 217
276 321 326 345 342 341 341 341 341 340 333 321 323 332 329 323 323 316 314 309 306 304 300 297 291 287 287 288 290 294 302 302 299 295 297 300 301 303 301 297 289 281 275 275 275 274 270 268 265 255 249 246 248 248 244 242 241 245 244 245 240 238 241 241 236 239 241 245 238 212 205 214 200 207 198 194 200 196 193 184 207 207 208 210 216
317 341 350 347 347 338 338 334 340 335 329 324 319 316 312 306 297 290 296 298 296 295 296 297 295 292 283 279 274 277 278 282 284 290 291 286 284 288 290 292 292 290 288 279 270 266 267 266 265 261 255 253 249 249 241 245 241 246 243 239 239 237 240 241 240 239 242 243 241 227 208 197 213 213 106 165 198 224 207 190 203 200 207 212 215
313 343 349 344 332 330 333 340 336 338 334 330 326 321 315 306 299 294 289 288 289 287 288 289 294 295 287 279 280 276 273 269 266 267 278 283 284 283 282 279 280 284 284 284 282 278 271 264 262 259 255 253 252 250 247 240 241 247 242 229 235 236 240 239 237 238 241 242 246 230 201 209 209 193 184 189 199 207 185 180 217 213 207 219 229
270 307 317 300 304 315 327 325 325 322 324 321 319 318 317 316 315 313 309 302 297 296 293 292 291 291 296 296 291 287 278 272 263 263 261 266 268 267 270 273 273 274 276 279 277 274 275 275 268 262 260 256 254 253 253 249 244 240 244 230 229 235 236 239 236 235 237 240 240 234 217 221 211 206 205 209 201 170 168 194 207 195 179 223 243
280 285 298 302 308 316 320 311 311 313 307 310 307 308 307 307 308 306 304 303 302 302 299 298 298 295 295 296 296 293 287 282 275 276 276 274 271 269 267 269 266 264 266 268 272 272 269 268 270 272 270 266 260 255 253 252 251 248 245 239 231 229 235 238 239 234 234 238 240 234 232 234 222 204 213 202 191 195 198 192 197 183 193 198 221
6 352 342 339 331 327 317 314 312 307 311 306 304 301 301 301 300 299 299 300 299 296 295 292 292 294 293 293 289 287 286 281 283 283 279 276 272 267 267 267 266 266 262 259 261 263 267 267 263 261 260 258 260 261 258 255 253 250 249 247 244 240 235 233 238 240 234 240 240 234 234 237 231 193 201 192 197 204 207 194 198 197 200 208 216
350 342 332 331 325 323 322 318 313 313 314 313 310 310 307 304 302 302 301 301 302 298 294 295 292 290 287 286 286 285 284 281 283 285 285 283 281 278 271 268 268 267 265 263 261 262 260 259 262 259 255 255 256 256 257 259 257 252 250 249 246 244 243 241 239 238 238 242 243 244 234 238 237 212 194 192 176 200 196 206 208 213 213 214 218
349 333 331 334 335 333 328 327 326 327 329 325 320 315 314 309 309 310 309 308 302 299 297 294 294 291 289 286 283 283 281 280 284 285 284 284 283 282 274 271 268 264 262 261 262 262 260 257 258 259 254 252 246 247 249 250 252 254 251 247 244 244 243 242 243 244 240 240 242 248 243 235 241 233 185 177 184 200 197 210 206 211 215 223 220
340 338 334 336 341 340 342 341 334 329 326 323 321 318 315 313 312 312 311 306 303 300 299 299 296 294 291 289 287 284 281 282 283 285 285 285 286 286 282 279 276 273 268 263 260 259 257 256 254 255 258 252 244 238 239 241 243 245 247 246 242 239 238 236 237 236 235 236 240 245 249 240 242 243 178 195 197 200 197 202 201 205 217 232 247
339 342 339 340 344 346 344 332 326 325 323 321 316 312 309 308 308 311 308 303 299 298 294 293 292 292 291 290 289 286 285 286 287 287 289 289 290 289 287 284 283 280 276 272 265 261 258 254 253 254 253 254 247 241 238 236 237 239 242 244 245 243 241 235 230 226 229 231 237 243 246 241 236 237 204 194 207 205 208 214 213 210 213 219 228
332 332 332 339 339 339 337 331 326 324 321 315 310 308 310 311 309 312 304 299 297 295 294 292 292 291 291 289 287 287 287 288 290 292 293 293 293 290 288 286 283 283 281 281 277 271 265 257 254 254 252 253 246 245 245 241 239 237 239 242 243 243 247 245 237 234 229 225 230 237 243 242 237 235 229 204 195 187 192 200 213 200 206 219 231
328 335 336 336 338 344 341 334 324 320 317 313 312 312 312 307 301 306 300 300 295 293 295 294 290 288 287 288 287 288 287 289 291 293 294 294 294 293 293 291 286 284 282 280 280 277 272 266 259 254 253 253 248 246 245 242 241 238 238 238 243 244 246 245 242 234 232 233 233 236 240 240 237 237 234 227 207 180 191 212 212 194 212 217 224
341 338 335 342 341 337 331 326 320 316 314 311 312 309 308 305 303 304 298 298 296 300 300 296 293 290 288 289 292 291 291 292 293 294 294 293 293 290 288 283 282 279 280 281 281 280 279 275 268 261 255 251 250 249 245 239 239 235 238 237 238 240 240 240 235 232 230 230 237 241 244 242 240 235 235 235 230 211 206 216 202 199 212 222 224
342 339 335 330 327 323 321 317 313 312 310 307 305 300 301 302 302 304 300 296 293 292 293 290 291 289 292 294 294 295 295 295 296 295 295 294 293 292 287 284 279 280 278 279 282 278 276 274 273 271 268 263 259 255 249 241 236 234 234 236 234 240 238 238 232 224 225 223 230 232 236 236 233 230 230 230 231 227 218 216 213 208 215 222 215
336 329 323 317 314 312 309 308 306 303 299 299 300 299 299 298 298 297 294 292 286 287 290 288 286 286 290 290 289 288 290 294 295 296 296 296 295 294 290 284 283 281 280 276 270 272 271 269 268 270 270 267 263 259 255 249 241 233 232 234 230 236 235 239 234 226 222 227 231 231 233 231 229 223 224 224 222 222 223 218 215 213 214 218 217
323 317 311 308 304 303 304 301 297 295 298 298 298 297 294 290 290 291 289 289 291 290 289 288 288 289 289 288 288 290 293 295 297 300 299 298 297 295 292 287 286 284 281 272 269 263 260 263 261 266 269 271 270 266 259 254 249 243 233 229 231 233 235 238 227 210 210 223 227 228 227 224 224 223 224 222 220 218 220 220 216 216 218 219 217
310 306 304 302 303 302 300 298 297 298 295 295 293 295 296 295 292 291 289 289 287 289 290 290 290 291 292 287 287 292 295 296 299 298 300 301 300 298 295 292 289 287 285 284 284 283 282 280 277 276 275 274 272 268 264 259 254 245 241 235 232 231 235 238 222 194 210 217 221 225 223 223 222 224 222 223 221 217 218 220 221 217 220 223 223
304 303 301 300 300 297 295 296 293 292 292 292 291 291 295 295 294 293 291 290 292 291 288 287 289 290 295 297 294 293 293 295 298 300 300 300 299 297 295 294 294 291 289 286 288 288 292 292 291 285 278 272 267 262 261 260 254 250 247 245 239 237 236 236 227 213 211 217 219 222 225 222 222 224 224 221 221 217 218 221 223 222 221 222 224
304 301 298 297 296 296 296 294 294 291 289 291 296 299 296 299 298 295 293 291 289 289 289 291 291 291 291 292 293 290 289 287 284 288 289 291 292 292 292 291 291 289 285 283 281 286 285 285 284 284 283 281 278 277 271 262 256 252 249 244 241 239 237 232 227 219 219 217 218 221 225 224 220 223 224 220 216 213 216 222 222 223 217 209 181
305 300 299 299 299 300 300 297 289 288 291 296 296 294 294 298 295 294 290 288 289 287 287 287 284 287 288 284 286 284 281 277 277 277 278 279 280 281 282 284 285 283 281 279 280 280 281 283 282 280 280 284 284 277 270 270 261 253 248 244 239 236 232 231 224 222 222 221 220 220 224 223 221 218 211 197 203 210 206 209 189 173 163 162 154
300 302 303 304 300 300 299 300 302 305 310 303 294 289 291 289 291 292 290 290 289 287 288 289 286 282 280 279 277 276 276 275 274 274 273 274 270 269 273 271 272 275 277 275 274 274 272 271 272 276 280 279 278 281 282 275 265 251 240 238 238 235 230 225 222 222 223 223 224 222 224 222 196 170 192 199 210 212 199 190 194 196 178 183 189
302 305 304 301 300 301 298 296 304 309 301 296 295 294 288 288 288 288 291 291 291 289 286 283 280 278 280 280 280 277 275 267 264 270 271 267 266 264 260 260 261 253 262 266 260 260 261 265 271 272 275 275 274 272 272 274 266 258 242 231 228 227 229 228 227 226 225 225 226 224 221 203 196 205 201 202 206 205 191 187 195 191 186 170 179
300 299 298 299 298 297 295 304 306 299 295 290 281 281 287 288 284 281 278 273 274 280 278 279 278 281 282 288 294 288 285 282 276 287 286 287 290 288 273 260 249 251 247 253 255 254 252 259 255 263 263 270 271 269 268 267 270 263 249 237 227 223 226 224 227 226 223 220 220 216 217 207 210 201 200 200 207 201 186 191 195 184 183 188 198
303 300 301 301 301 302 304 306 301 294 290 291 293 291 286 294 294 294 293 294 295 295 296 295 296 297 295 287 287 294 298 296 301 303 304 303 300 297 295 294 293 292 292 291 289 288 283 278 274 272 271 268 269 268 266 268 270 267 258 242 235 227 222 222 225 229 226 224 222 217 215 207 207 199 196 203 204 197 189 187 191 177 179 192 201
300 300 305 305 304 306 308 304 297 292 289 291 291 294 300 301 301 300 299 300 300 301 301 301 301 302 301 300 299 299 300 302 304 303 302 301 299 298 298 296 294 294 293 293 289 279 278 273 274 271 271 273 270 272 273 270 266 266 265 263 249 237 230 222 222 224 228 227 226 222 216 209 206 198 197 200 198 189 188 192 184 179 189 192 195
302 304 305 304 305 305 304 298 295 294 293 290 292 294 297 300 302 302 305 304 304 303 303 303 303 303 303 302 302 300 301 302 301 301 301 302 302 302 301 299 298 295 293 293 291 287 276 274 271 265 269 268 270 271 272 274 269 259 252 246 244 240 240 235 226 222 226 227 225 222 216 209 205 200 198 197 188 184 182 183 182 187 189 193 192
298 302 303 303 302 305 304 298 295 294 295 297 297 297 298 301 304 308 310 309 307 305 304 304 305 304 304 305 305 304 305 305 304 306 308 310 309 307 304 301 301 298 298 296 289 285 275 270 266 264 259 260 260 264 266 266 269 267 256 244 234 226 225 230 230 227 224 225 223 221 214 208 202 197 195 187 180 185 184 185 185 183 182 183 188
296 298 302 302 306 307 304 297 297 296 292 292 293 296 295 295 295 297 304 310 315 313 310 307 306 309 309 309 309 309 309 310 312 312 312 311 310 309 307 307 307 304 304 299 293 285 281 273 268 262 257 250 250 252 256 260 265 270 265 251 237 224 222 219 225 225 226 227 228 221 207 199 190 187 187 187 187 183 181 185 180 178 187 189 186
304 297 293 295 299 300 298 297 296 293 292 294 296 297 297 297 296 297 298 301 303 305 308 313 313 315 314 313 311 313 314 314 313 312 312 311 311 311 315 315 309 306 303 288 280 272 270 269 267 265 258 254 249 247 249 251 257 261 264 256 243 227 221 221 225 226 225 224 225 219 199 191 188 186 183 179 178 184 189 185 187 187 186 183 180
308 304 303 302 305 299 296 293 291 289 291 291 293 294 296 297 299 297 297 295 295 296 298 301 301 307 311 313 314 315 316 317 315 312 310 310 310 315 314 301 295 289 283 281 273 275 274 271 269 263 255 247 243 245 248 250 251 256 261 258 248 233 221 214 217 225 228 224 218 203 190 192 186 184 185 186 185 187 187 187 188 189 185 181 176
309 306 304 307 307 302 298 292 287 287 293 297 298 298 298 298 296 297 297 297 297 296 297 301 305 304 312 310 312 320 319 318 316 313 311 310 314 318 296 290 284 288 286 289 289 287 286 286 285 276 261 248 238 240 248 252 252 253 255 252 240 228 220 211 213 216 222 222 209 196 192 194 190 188 182 186 191 191 187 184 181 178 180 175 166
297 297 299 308 310 308 302 298 297 300 299 295 297 299 300 300 301 302 302 303 304 306 306 307 308 309 314 315 319 313 311 311 316 319 321 324 324 308 298 293 291 289 293 296 302 304 299 294 292 290 276 250 242 243 248 244 241 246 248 245 228 216 209 207 217 214 211 212 212 203 195 194 190 188 186 186 183 179 175 173 170 173 173 173 171
300 301 308 316 315 310 304 304 302 304 303 305 305 306 307 309 310 310 310 309 310 310 309 310 312 315 317 318 318 315 319 329 336 332 331 331 331 337 338 329 321 316 311 308 310 310 305 301 301 299 287 258 241 241 243 251 259 262 254 247 238 228 213 208 209 215 213 213 208 197 192 191 184 182 181 177 174 172 172 170 173 172 171 174 178
307 305 308 318 316 308 304 300 299 299 301 309 312 313 310 312 314 314 314 315 314 314 313 314 318 320 322 322 321 330 334 332 332 329 326 327 329 332 331 324 323 321 319 314 314 313 312 308 303 301 295 269 244 242 247 250 256 256 255 244 226 218 218 206 204 202 207 201 186 178 176 174 172 170 170 175 172 169 167 171 174 175 175 173 168
299 300 307 317 316 311 303 296 291 294 302 308 307 309 310 312 314 314 315 314 314 313 314 315 318 318 323 328 332 337 341 334 326 325 325 326 327 328 328 327 327 323 320 318 315 310 308 307 310 320 321 307 258 242 243 247 247 248 239 232 224 226 212 206 194 194 185 166 165 164 165 159 158 159 166 164 158 158 161 160 159 161 157 152 151
301 303 316 320 319 309 302 299 295 304 305 305 309 312 315 317 317 318 319 316 314 315 317 321 320 321 327 335 340 346 348 332 328 325 325 326 326 327 327 327 323 319 320 321 318 313 311 313 318 324 323 337 351 344 331 308 293 244 192 159 159 126 140 186 168 145 146 149 142 147 147 149 154 147 150 148 147 147 147 152 154 150 149 151 149
299 305 313 319 315 309 304 300 302 308 318 319 319 321 320 320 321 320 319 319 319 321 323 324 324 327 328 337 343 347 344 334 334 330 326 327 325 325 325 324 323 322 322 321 322 317 312 313 320 328 335 347 356 354 357 358 4 27 31 29 51 71 95 90 104 105 104 109 114 115 119 132 135 128 135 133 135 138 143 142 143 145 146 146 148
304 310 316 316 310 304 298 298 306 315 315 319 322 320 320 320 319 319 320 321 321 325 325 326 326 330 329 336 340 343 342 340 335 336 332 330 328 328 327 323 324 324 325 324 329 321 324 326 329 334 345 356 1 5 7 6 6 12 31 48 52 52 53 55 64 83 108 112 114 117 117 117 116 120 121 128 132 135 137 138 141 143 143 146 145
298 315 322 320 312 306 301 303 308 315 317 319 315 312 315 319 322 326 327 325 327 328 330 329 332 331 335 338 340 341 340 339 338 337 337 334 333 332 330 329 332 332 332 332 336 336 334 335 337 344 349 351 353 360 9 9 14 17 11 32 50 56 53 57 56 62 74 101 107 113 118 120 124 125 126 129 135 136 138 143 144 141 139 142 147
312 322 324 316 311 303 304 307 317 316 316 320 318 320 321 323 325 329 329 328 329 330 331 333 333 335 337 337 338 340 340 341 342 342 340 341 340 340 341 341 342 342 342 340 341 342 337 341 338 341 348 348 348 352 0 5 8 14 24 31 42 46 49 65 72 80 82 91 103 106 109 105 104 113 120 126 126 128 127 129 131 136 137 137 136
321 330 323 316 304 300 302 312 317 321 324 319 318 320 322 326 329 328 327 332 332 330 334 333 337 339 340 340 342 342 340 343 343 344 344 344 344 344 346 346 346 346 351 347 348 350 353 356 357 358 355 1 3 5 11 9 11 13 19 27 36 46 41 44 54 66 77 81 94 104 105 110 111 113 112 112 113 116 117 122 125 127 124 129 130
337 331 319 307 299 299 305 317 321 325 322 320 322 322 322 326 329 332 334 334 335 335 335 336 337 337 338 339 341 341 342 342 339 342 345 346 348 347 347 350 354 351 348 351 355 357 360 4 3 4 3 5 8 10 8 14 17 22 23 31 37 48 54 57 58 60 62 71 73 85 97 101 104 104 108 111 113 117 117 115 114 110 116 117 123
338 329 316 307 299 305 311 318 319 319 317 315 315 320 325 329 330 330 329 332 334 333 333 335 336 336 338 336 335 338 339 341 342 346 347 348 346 348 347 349 352 352 354 356 355 356 357 1 7 11 10 10 11 15 16 18 24 23 30 33 53 57 59 66 66 62 68 73 78 84 86 89 94 98 99 103 105 105 106 106 107 110 108 108 107
325 312 299 295 297 300 304 306 300 299 304 307 314 323 328 331 332 332 332 331 330 332 335 335 336 336 335 336 339 340 342 345 345 344 344 344 346 345 347 349 352 355 358 357 357 356 358 358 359 4 13 17 17 17 23 23 28 36 37 46 53 55 58 61 64 65 65 67 72 82 88 92 92 92 93 96 100 103 102 104 105 106 108 106 99
315 303 293 287 290 295 305 305 308 309 312 317 329 332 332 331 325 322 325 328 327 329 331 329 329 334 337 335 334 336 338 340 339 339 341 344 345 345 348 350 353 355 357 358 358 359 359 360 1 0 1 4 12 18 25 35 38 48 57 59 59 59 58 58 62 70 72 70 71 74 82 87 94 94 93 93 94 94 99 99 101 102 101 100 97